Вернуться в каталог

STARLINK-36919

АктивенСвязьVLEO
NORAD 68053·PAYLOAD·🇺🇸 United States

Запущен Mar 2, 2026 с Vandenberg Space Force Base

Loading…

Ближайшие Пролёты (ближайшие 24 часа)

TLE

СвежийSource: CelesTrak SupGP

Эпоха: Sep 15, 2026, 03:17 UTC

1 68053C 26041P   26258.13729167 -.00046495  00000+0 -13735-2 0  2582
2 68053  53.1576 246.8450 0001301  90.0716  17.8715 15.34419711    14

Отслеживайте STARLINK-36919 в реальном времени с AllMySat

Download on the App Store